RYR716U LKPR-LIRP

Flight info

Callsign RYR716U
Flight time 1h 23m
Altitude 36000
Route DOBEN DCT RUDAP P31 DOSEL DCT KUMOM DCT DETSA/N0457F370 DCT GAVRA DCT KUGIX Y662 AKUTO L12 MAREL
Aircraft B738/M-SDE2E3FGHIRWXY/LB1

Departure

Time 2026-05-04 13:18
Airport Václav Havel Airport Prague (LKPR)

Arrival

Time 2026-05-04 14:41
Airport Pisa International Airport (LIRP)
Time Latitude Longitude Altitude Speed Heading
2026-05-04 12:40 50.10384 14.26683 1176 ft 0 kts 34°
2026-05-04 13:05 50.10381 14.26679 1178 ft 3 kts 32°
2026-05-04 13:06 50.10361 14.26666 1176 ft 3 kts 359°
2026-05-04 13:06 50.10341 14.26675 1173 ft 4 kts 319°
2026-05-04 13:06 50.10329 14.26697 1174 ft 2 kts 304°
2026-05-04 13:10 50.10335 14.26683 1174 ft 4 kts 304°
2026-05-04 13:10 50.10367 14.26608 1178 ft 12 kts 303°
2026-05-04 13:11 50.10431 14.26478 1176 ft 18 kts 308°
2026-05-04 13:11 50.10504 14.26317 1177 ft 15 kts 304°
2026-05-04 13:11 50.10509 14.26187 1175 ft 13 kts 215°
2026-05-04 13:11 50.10429 14.26134 1186 ft 13 kts 161°
2026-05-04 13:12 50.10371 14.26244 1188 ft 14 kts 126°
2026-05-04 13:12 50.10307 14.26377 1191 ft 17 kts 127°
2026-05-04 13:12 50.10228 14.26540 1194 ft 21 kts 127°
2026-05-04 13:12 50.10135 14.26734 1197 ft 24 kts 127°
2026-05-04 13:13 50.10029 14.26953 1202 ft 26 kts 127°
2026-05-04 13:13 50.09918 14.27184 1205 ft 27 kts 127°
2026-05-04 13:13 50.09792 14.27411 1204 ft 27 kts 135°
2026-05-04 13:13 50.09662 14.27608 1206 ft 25 kts 137°
2026-05-04 13:14 50.09540 14.27793 1210 ft 24 kts 135°
2026-05-04 13:14 50.09425 14.27971 1216 ft 23 kts 135°
2026-05-04 13:14 50.09315 14.28143 1222 ft 22 kts 135°
2026-05-04 13:14 50.09228 14.28271 1226 ft 13 kts 147°
2026-05-04 13:15 50.09165 14.28283 1232 ft 1 kts 198°
2026-05-04 13:15 50.09163 14.28282 1232 ft 0 kts 200°
2026-05-04 13:16 50.09162 14.28282 1232 ft 1 kts 201°
2026-05-04 13:16 50.09150 14.28273 1234 ft 4 kts 208°
2026-05-04 13:16 50.09104 14.28213 1240 ft 13 kts 226°
2026-05-04 13:16 50.09096 14.28067 1232 ft 12 kts 306°
2026-05-04 13:17 50.09101 14.28057 1232 ft 0 kts 306°
2026-05-04 13:17 50.09128 14.28001 1232 ft 29 kts 307°
2026-05-04 13:17 50.09412 14.27411 1218 ft 106 kts 307°
2026-05-04 13:17 50.09992 14.26208 1231 ft 167 kts 307°
2026-05-04 13:18 50.10723 14.24710 1797 ft 185 kts 307°
2026-05-04 13:18 50.11550 14.23025 2459 ft 200 kts 307°
2026-05-04 13:18 50.12381 14.21317 3380 ft 200 kts 307°
2026-05-04 13:18 50.13218 14.19527 3990 ft 207 kts 304°
2026-05-04 13:19 50.14075 14.17725 4677 ft 207 kts 306°
2026-05-04 13:19 50.14659 14.16511 5118 ft 208 kts 306°
2026-05-04 13:19 50.15812 14.14120 6019 ft 209 kts 305°
2026-05-04 13:19 50.16693 14.12292 6678 ft 212 kts 304°
2026-05-04 13:20 50.17507 14.10386 7281 ft 212 kts 287°
2026-05-04 13:20 50.17550 14.08037 7454 ft 233 kts 249°
2026-05-04 13:20 50.16540 14.05938 7606 ft 257 kts 219°
2026-05-04 13:20 50.14993 14.04353 7812 ft 275 kts 211°
2026-05-04 13:21 50.13336 14.02922 8004 ft 266 kts 209°
2026-05-04 13:21 50.11742 14.01596 8083 ft 253 kts 209°
2026-05-04 13:21 50.10230 14.00337 8107 ft 240 kts 210°
2026-05-04 13:21 50.08788 13.99125 8108 ft 232 kts 210°
2026-05-04 13:22 50.07380 13.97928 8123 ft 230 kts 210°
2026-05-04 13:22 50.05948 13.96701 8226 ft 244 kts 210°
2026-05-04 13:22 50.04390 13.95358 8541 ft 266 kts 210°
2026-05-04 13:22 50.02749 13.93939 9300 ft 272 kts 210°
2026-05-04 13:23 50.01091 13.92504 10144 ft 274 kts 211°
2026-05-04 13:23 49.99382 13.91022 10562 ft 292 kts 210°
2026-05-04 13:23 49.97530 13.89413 10744 ft 317 kts 211°
2026-05-04 13:23 49.95535 13.87679 10920 ft 340 kts 210°
2026-05-04 13:24 49.93413 13.85838 11196 ft 357 kts 210°
2026-05-04 13:24 49.91251 13.83963 11773 ft 363 kts 210°
2026-05-04 13:24 49.89040 13.82049 12501 ft 365 kts 210°
2026-05-04 13:25 49.84562 13.78174 13887 ft 372 kts 210°
2026-05-04 13:25 49.82288 13.76209 14496 ft 376 kts 210°
2026-05-04 13:25 49.79992 13.74226 15116 ft 379 kts 210°
2026-05-04 13:25 49.77677 13.72230 15731 ft 382 kts 210°
2026-05-04 13:26 49.75348 13.70222 15960 ft 384 kts 210°
2026-05-04 13:26 49.73015 13.68214 15978 ft 385 kts 210°
2026-05-04 13:26 49.70674 13.66202 15985 ft 385 kts 210°
2026-05-04 13:26 49.68328 13.64186 15994 ft 385 kts 210°
2026-05-04 13:27 49.65977 13.62169 15993 ft 387 kts 210°
2026-05-04 13:27 49.63623 13.60152 15986 ft 387 kts 210°
2026-05-04 13:27 49.61267 13.58135 15982 ft 387 kts 210°
2026-05-04 13:27 49.58922 13.56129 15994 ft 387 kts 210°
2026-05-04 13:28 49.57358 13.54793 15989 ft 386 kts 210°
2026-05-04 13:28 49.55008 13.52787 15991 ft 386 kts 210°
2026-05-04 13:28 49.52665 13.50788 15994 ft 385 kts 210°
2026-05-04 13:28 49.50322 13.48792 16000 ft 385 kts 210°
2026-05-04 13:29 49.47959 13.46782 16092 ft 391 kts 210°
2026-05-04 13:29 49.45574 13.44754 16726 ft 392 kts 210°
2026-05-04 13:29 49.43185 13.42727 17422 ft 393 kts 210°
2026-05-04 13:29 49.40783 13.40690 18002 ft 396 kts 210°
2026-05-04 13:30 49.38362 13.38638 18513 ft 400 kts 210°
2026-05-04 13:30 49.35906 13.36560 19003 ft 404 kts 210°
2026-05-04 13:30 49.33439 13.34474 19502 ft 407 kts 210°
2026-05-04 13:30 49.30952 13.32374 19993 ft 410 kts 210°
2026-05-04 13:31 49.28441 13.30258 20478 ft 413 kts 210°
2026-05-04 13:31 49.25947 13.28157 20943 ft 416 kts 210°
2026-05-04 13:31 49.23395 13.26015 21371 ft 420 kts 209°
2026-05-04 13:31 49.20786 13.23973 21803 ft 423 kts 207°
2026-05-04 13:32 49.18127 13.21991 22252 ft 426 kts 207°
2026-05-04 13:32 49.15457 13.19996 22672 ft 429 kts 207°
2026-05-04 13:32 49.12774 13.17969 23070 ft 432 kts 207°
2026-05-04 13:32 49.10067 13.15928 23483 ft 434 kts 207°
2026-05-04 13:33 49.07337 13.13899 23821 ft 437 kts 206°
2026-05-04 13:33 49.04590 13.11870 24181 ft 439 kts 206°
2026-05-04 13:33 49.01836 13.09840 24549 ft 441 kts 207°
2026-05-04 13:33 48.99070 13.07801 24889 ft 443 kts 207°
2026-05-04 13:34 48.96290 13.05751 25215 ft 445 kts 207°
2026-05-04 13:34 48.93496 13.03692 25555 ft 447 kts 207°
2026-05-04 13:34 48.90690 13.01626 25875 ft 449 kts 207°
2026-05-04 13:34 48.87875 12.99554 26202 ft 451 kts 207°
2026-05-04 13:35 48.85045 12.97473 26528 ft 453 kts 207°
2026-05-04 13:35 48.79347 12.93296 27114 ft 457 kts 207°
2026-05-04 13:35 48.76485 12.91201 27451 ft 457 kts 207°
2026-05-04 13:36 48.73688 12.88944 27933 ft 453 kts 213°
2026-05-04 13:36 48.71177 12.86196 28414 ft 449 kts 223°
2026-05-04 13:36 48.68863 12.82943 28884 ft 447 kts 225°
2026-05-04 13:36 48.66641 12.79752 29306 ft 446 kts 225°
2026-05-04 13:37 48.64381 12.76544 29717 ft 446 kts 224°
2026-05-04 13:37 48.62109 12.73373 30149 ft 444 kts 224°
2026-05-04 13:37 48.59838 12.70231 30547 ft 442 kts 224°
2026-05-04 13:37 48.57574 12.67093 30913 ft 441 kts 224°
2026-05-04 13:38 48.55325 12.63962 31269 ft 439 kts 224°
2026-05-04 13:38 48.53081 12.60836 31640 ft 438 kts 224°
2026-05-04 13:38 48.50846 12.57725 31999 ft 437 kts 224°
2026-05-04 13:38 48.48616 12.54631 32359 ft 435 kts 224°
2026-05-04 13:39 48.46324 12.51658 32678 ft 436 kts 216°
2026-05-04 13:39 48.43681 12.49397 32978 ft 438 kts 206°
2026-05-04 13:39 48.40808 12.47857 33331 ft 439 kts 197°
2026-05-04 13:39 48.37783 12.47129 33667 ft 441 kts 188°
2026-05-04 13:40 48.34728 12.46754 33959 ft 441 kts 187°
2026-05-04 13:40 48.28561 12.46099 33950 ft 445 kts 187°
2026-05-04 13:41 48.22415 12.45404 33943 ft 441 kts 187°
2026-05-04 13:41 48.16344 12.44665 33941 ft 440 kts 187°
2026-05-04 13:42 48.07191 12.43522 33941 ft 440 kts 187°
2026-05-04 13:42 48.01093 12.42764 33937 ft 440 kts 187°
2026-05-04 13:43 47.94980 12.42007 33925 ft 441 kts 187°
2026-05-04 13:43 47.88860 12.41251 33933 ft 441 kts 187°
2026-05-04 13:44 47.82728 12.40496 33938 ft 443 kts 187°
2026-05-04 13:44 47.76561 12.39738 33928 ft 446 kts 187°
2026-05-04 13:45 47.70393 12.38982 33923 ft 444 kts 187°
2026-05-04 13:45 47.64257 12.38232 33930 ft 441 kts 187°
2026-05-04 13:46 47.58189 12.37490 33917 ft 439 kts 186°
2026-05-04 13:46 47.52102 12.36750 33940 ft 439 kts 186°
2026-05-04 13:47 47.45997 12.36005 33948 ft 440 kts 187°
2026-05-04 13:47 47.39878 12.35261 33964 ft 442 kts 186°
2026-05-04 13:48 47.33761 12.34517 34012 ft 446 kts 186°
2026-05-04 13:48 47.30666 12.34142 34259 ft 445 kts 186°
2026-05-04 13:48 47.27590 12.33771 34646 ft 441 kts 186°
2026-05-04 13:49 47.24538 12.33403 34910 ft 441 kts 187°
2026-05-04 13:49 47.21467 12.33031 34964 ft 444 kts 187°
2026-05-04 13:49 47.15311 12.32289 34998 ft 443 kts 187°
2026-05-04 13:50 47.09199 12.31555 34992 ft 439 kts 187°
2026-05-04 13:50 47.03147 12.30830 35032 ft 436 kts 187°
2026-05-04 13:51 46.97113 12.30102 35065 ft 436 kts 187°
2026-05-04 13:51 46.91018 12.29375 35108 ft 442 kts 186°
2026-05-04 13:52 46.81762 12.28274 35132 ft 447 kts 186°
2026-05-04 13:53 46.75553 12.27426 35132 ft 448 kts 188°
2026-05-04 13:53 46.69361 12.26417 35129 ft 445 kts 188°
2026-05-04 13:54 46.60243 12.24931 35109 ft 442 kts 188°
2026-05-04 13:55 46.50985 12.23463 35096 ft 448 kts 188°
2026-05-04 13:55 46.41654 12.21999 35053 ft 448 kts 188°
2026-05-04 13:56 46.35516 12.21040 35051 ft 442 kts 188°
2026-05-04 13:57 46.26348 12.19608 35052 ft 441 kts 187°
2026-05-04 13:58 46.14107 12.17703 35054 ft 443 kts 187°
2026-05-04 13:58 46.04927 12.16281 35055 ft 445 kts 188°
2026-05-04 13:59 45.98764 12.15329 35054 ft 445 kts 187°
2026-05-04 14:00 45.89518 12.13904 35056 ft 445 kts 187°
2026-05-04 14:00 45.80289 12.12488 35063 ft 444 kts 188°
2026-05-04 14:01 45.74153 12.11548 35075 ft 443 kts 188°
2026-05-04 14:02 45.64971 12.10146 35072 ft 442 kts 188°
2026-05-04 14:02 45.58854 12.09215 35074 ft 441 kts 188°
2026-05-04 14:03 45.52748 12.08286 35049 ft 441 kts 188°
2026-05-04 14:03 45.46640 12.07360 35059 ft 441 kts 188°
2026-05-04 14:04 45.37460 12.05972 35062 ft 444 kts 188°
2026-05-04 14:04 45.31337 12.05048 35050 ft 445 kts 188°
2026-05-04 14:05 45.22124 12.03663 35043 ft 443 kts 188°
2026-05-04 14:06 45.16000 12.02745 35054 ft 442 kts 188°
2026-05-04 14:06 45.09850 12.01825 35054 ft 445 kts 188°
2026-05-04 14:07 45.03668 12.00900 35051 ft 448 kts 188°
2026-05-04 14:07 44.97464 11.99976 35045 ft 449 kts 188°
2026-05-04 14:08 44.91245 11.99052 35041 ft 449 kts 188°
2026-05-04 14:08 44.85027 11.98129 35048 ft 449 kts 188°
2026-05-04 14:09 44.75734 11.96755 35050 ft 449 kts 188°
2026-05-04 14:10 44.66405 11.95379 35050 ft 449 kts 188°
2026-05-04 14:10 44.60194 11.94466 35049 ft 449 kts 188°
2026-05-04 14:11 44.53988 11.93555 35060 ft 448 kts 188°
2026-05-04 14:11 44.44683 11.92193 35049 ft 448 kts 188°
2026-05-04 14:12 44.38483 11.91288 35075 ft 448 kts 189°
2026-05-04 14:13 44.29172 11.89931 35073 ft 451 kts 189°
2026-05-04 14:13 44.22928 11.89025 35071 ft 451 kts 189°
2026-05-04 14:14 44.16686 11.88122 35073 ft 451 kts 189°
2026-05-04 14:14 44.07297 11.86764 35075 ft 453 kts 189°
2026-05-04 14:15 43.94750 11.84962 35077 ft 452 kts 190°
2026-05-04 14:16 43.85392 11.83607 35089 ft 452 kts 190°
2026-05-04 14:17 43.79296 11.82007 35119 ft 439 kts 210°
2026-05-04 14:17 43.76742 11.79781 35113 ft 432 kts 224°
2026-05-04 14:17 43.73059 11.73377 34876 ft 430 kts 239°
2026-05-04 14:18 43.71420 11.69876 34252 ft 434 kts 239°
2026-05-04 14:18 43.68691 11.64060 33019 ft 435 kts 238°
2026-05-04 14:19 43.65344 11.57077 31536 ft 437 kts 238°
2026-05-04 14:19 43.63652 11.53583 30774 ft 439 kts 237°
2026-05-04 14:19 43.61947 11.50071 29952 ft 442 kts 237°
2026-05-04 14:19 43.60233 11.46542 29008 ft 444 kts 237°
2026-05-04 14:20 43.58506 11.42992 28111 ft 445 kts 237°
2026-05-04 14:20 43.56941 11.39332 27454 ft 440 kts 246°
2026-05-04 14:20 43.55865 11.35423 26832 ft 435 kts 253°
2026-05-04 14:21 43.54965 11.27236 25440 ft 430 kts 268°
2026-05-04 14:21 43.54938 11.23127 24825 ft 427 kts 269°
2026-05-04 14:21 43.54917 11.19050 24211 ft 424 kts 269°
2026-05-04 14:21 43.54876 11.14995 23587 ft 421 kts 268°
2026-05-04 14:22 43.54818 11.11019 22912 ft 418 kts 268°
2026-05-04 14:22 43.54728 11.07034 22297 ft 413 kts 265°
2026-05-04 14:22 43.54313 11.03143 21717 ft 408 kts 257°
2026-05-04 14:22 43.53476 10.99435 21097 ft 404 kts 249°
2026-05-04 14:23 43.51477 10.92272 19927 ft 397 kts 249°
2026-05-04 14:23 43.50503 10.88732 19360 ft 393 kts 249°
2026-05-04 14:23 43.49549 10.85219 18808 ft 390 kts 250°
2026-05-04 14:24 43.48602 10.81721 18229 ft 388 kts 249°
2026-05-04 14:24 43.47651 10.78261 17592 ft 385 kts 246°
2026-05-04 14:24 43.46217 10.75187 17025 ft 382 kts 228°
2026-05-04 14:24 43.44203 10.72824 16378 ft 382 kts 213°
2026-05-04 14:25 43.41793 10.71296 15829 ft 381 kts 202°
2026-05-04 14:25 43.37965 10.66813 14987 ft 363 kts 247°
2026-05-04 14:25 43.37331 10.63592 14895 ft 345 kts 262°
2026-05-04 14:26 43.37278 10.60369 14537 ft 333 kts 273°
2026-05-04 14:26 43.37671 10.57219 14144 ft 326 kts 284°
2026-05-04 14:26 43.38546 10.54469 13973 ft 313 kts 299°
2026-05-04 14:26 43.39765 10.52025 13585 ft 307 kts 304°
2026-05-04 14:27 43.41026 10.49729 13290 ft 296 kts 304°
2026-05-04 14:27 43.42273 10.47455 12809 ft 298 kts 304°
2026-05-04 14:27 43.43507 10.45222 12588 ft 286 kts 304°
2026-05-04 14:27 43.44685 10.43085 12357 ft 275 kts 304°
2026-05-04 14:28 43.45813 10.41031 12233 ft 262 kts 303°
2026-05-04 14:28 43.46967 10.39156 12058 ft 254 kts 319°
2026-05-04 14:28 43.48551 10.38162 11923 ft 252 kts 350°
2026-05-04 14:28 43.50313 10.38333 11712 ft 262 kts 19°
2026-05-04 14:29 43.53447 10.41076 11060 ft 273 kts 40°
2026-05-04 14:29 43.56413 10.44241 10478 ft 264 kts 40°
2026-05-04 14:30 43.57859 10.45759 10206 ft 259 kts 39°
2026-05-04 14:30 43.59285 10.47240 9938 ft 253 kts 40°
2026-05-04 14:30 43.62087 10.50140 9413 ft 251 kts 39°
2026-05-04 14:31 43.63470 10.51569 9163 ft 244 kts 39°
2026-05-04 14:31 43.66059 10.54244 8658 ft 222 kts 39°
2026-05-04 14:32 43.68493 10.56767 8217 ft 218 kts 39°
2026-05-04 14:32 43.69694 10.58014 8004 ft 219 kts 40°
2026-05-04 14:32 43.70912 10.59278 7784 ft 220 kts 39°
2026-05-04 14:32 43.72138 10.60551 7558 ft 220 kts 39°
2026-05-04 14:33 43.73338 10.61795 7324 ft 211 kts 39°
2026-05-04 14:33 43.74493 10.62993 7098 ft 205 kts 39°
2026-05-04 14:33 43.75618 10.64163 6884 ft 200 kts 39°
2026-05-04 14:33 43.76723 10.65311 6700 ft 197 kts 39°
2026-05-04 14:34 43.77821 10.66453 6507 ft 197 kts 39°
2026-05-04 14:34 43.79001 10.67429 6265 ft 200 kts 14°
2026-05-04 14:34 43.80346 10.67240 6056 ft 197 kts 329°
2026-05-04 14:34 43.81338 10.65998 5931 ft 193 kts 310°
2026-05-04 14:35 43.82265 10.64622 5717 ft 198 kts 311°
2026-05-04 14:35 43.83216 10.63221 5510 ft 200 kts 311°
2026-05-04 14:35 43.84163 10.61825 5297 ft 197 kts 311°
2026-05-04 14:35 43.85086 10.60442 5013 ft 196 kts 307°
2026-05-04 14:36 43.85529 10.58736 4654 ft 186 kts 259°
2026-05-04 14:36 43.84979 10.57297 4601 ft 164 kts 226°
2026-05-04 14:36 43.84443 10.55752 4423 ft 202 kts 257°
2026-05-04 14:36 43.84227 10.53809 4087 ft 199 kts 258°
2026-05-04 14:37 43.84001 10.51985 3825 ft 185 kts 258°
2026-05-04 14:37 43.83650 10.50333 3632 ft 180 kts 232°
2026-05-04 14:37 43.82666 10.49297 3413 ft 180 kts 201°
2026-05-04 14:37 43.81517 10.48619 3104 ft 178 kts 201°
2026-05-04 14:38 43.80420 10.47951 3077 ft 165 kts 201°
2026-05-04 14:38 43.79394 10.47352 2985 ft 156 kts 202°
2026-05-04 14:38 43.78373 10.46767 2819 ft 158 kts 199°
2026-05-04 14:38 43.77388 10.46219 2678 ft 145 kts 202°
2026-05-04 14:39 43.76493 10.45640 2720 ft 143 kts 205°
2026-05-04 14:39 43.75589 10.44998 2649 ft 150 kts 205°
2026-05-04 14:39 43.74639 10.44383 2427 ft 150 kts 202°
2026-05-04 14:40 43.72770 10.43178 1648 ft 148 kts 202°
2026-05-04 14:40 43.71836 10.42592 1106 ft 146 kts 202°
2026-05-04 14:40 43.70921 10.42039 652 ft 142 kts 207°
2026-05-04 14:40 43.70126 10.41270 296 ft 140 kts 224°
2026-05-04 14:41 43.69334 10.40429 74 ft 143 kts 223°
2026-05-04 14:41 43.68547 10.39619 24 ft 136 kts 219°
2026-05-04 14:41 43.67639 10.38665 18 ft 24 kts 216°
2026-05-04 14:42 43.67576 10.38422 14 ft 13 kts 306°
2026-05-04 14:42 43.67586 10.38402 13 ft 0 kts 306°
2026-05-04 14:42 43.67598 10.38381 13 ft 5 kts 307°
2026-05-04 14:43 43.67613 10.38356 12 ft 5 kts 320°
2026-05-04 14:43 43.67666 10.38365 13 ft 11 kts 31°
2026-05-04 14:43 43.67745 10.38446 14 ft 17 kts 37°
2026-05-04 14:43 43.67856 10.38561 14 ft 23 kts 36°
2026-05-04 14:44 43.67994 10.38701 14 ft 27 kts 36°
2026-05-04 14:44 43.68150 10.38863 14 ft 28 kts 36°
2026-05-04 14:44 43.68295 10.39012 14 ft 25 kts 36°
2026-05-04 14:44 43.68431 10.39154 16 ft 24 kts 36°
2026-05-04 14:45 43.68559 10.39286 17 ft 23 kts 37°
2026-05-04 14:45 43.68687 10.39418 17 ft 24 kts 37°
2026-05-04 14:45 43.68826 10.39559 18 ft 26 kts 36°
2026-05-04 14:45 43.68979 10.39718 18 ft 28 kts 37°
2026-05-04 14:46 43.69141 10.39883 22 ft 29 kts 36°
2026-05-04 14:46 43.69294 10.40044 21 ft 23 kts 37°
2026-05-04 14:46 43.69440 10.40096 19 ft 24 kts 351°
2026-05-04 14:46 43.69584 10.40067 14 ft 13 kts 352°
2026-05-04 14:47 43.69671 10.40041 16 ft 13 kts 322°
2026-05-04 14:47 43.69694 10.39936 14 ft 9 kts 281°
2026-05-04 14:47 43.69701 10.39875 15 ft 6 kts 279°
2026-05-04 14:47 43.69734 10.39853 14 ft 6 kts 14°
2026-05-04 14:48 43.69767 10.39862 14 ft 1 kts
2026-05-04 14:48 43.69768 10.39862 14 ft 0 kts